^^
Station Historical Data
 
Daily Summary for August 19, 2017 Units:  Metric    English   Both
« Previous Day
Next Day »
Daily Weekly Monthly Yearly Custom
  Current: High: Low: Average:
Temperature: 22.6 °C 32.9 °C 16.8 °C 24.3 °C
Dew Point: 12.8 °C 16.7 °C 10.7 °C 13.6 °C
Humidity: 54% 70% 38% 53%
Wind Speed: 11.1km/h 22.2km/h 0.0km/h 6.5km/h
Wind Gust: 11.1km/h 22.2km/h - -
WindNNE - - WSW
Pressure: 1013.8 hPa 1016.8 hPa 1012.8 hPa -
Precipitation: 0.0 mm      
Historical Graphs
 
 
Tabular Data for August 19, 2017
Time Temperature Dew Point Pressure Wind Wind Speed Wind Gust Humidity Rainfall Rate (Hourly) solar Conditions
00:03 21.4 °C 12.0 °C 1015.8 hPa Calm     55% 0.0 mm 0.0 W/m2 CLR
00:08 21.5 °C 12.1 °C 1015.8 hPa Calm     55% 0.0 mm 0.0 W/m2 CLR
00:13 21.3 °C 11.9 °C 1015.8 hPa Calm     55% 0.0 mm 0.0 W/m2 CLR
00:18 21.2 °C 11.8 °C 1015.8 hPa Calm     55% 0.0 mm 0.0 W/m2 CLR
00:23 21.0 °C 11.9 °C 1015.8 hPa Calm     56% 0.0 mm 0.0 W/m2 CLR
00:28 20.9 °C 11.8 °C 1015.8 hPa Calm     56% 0.0 mm 0.0 W/m2 CLR
00:33 20.9 °C 11.8 °C 1015.8 hPa Calm     56% 0.0 mm 0.0 W/m2 CLR
00:38 20.7 °C 11.6 °C 1015.8 hPa Calm     56% 0.0 mm 0.0 W/m2 CLR
00:43 20.6 °C 11.5 °C 1015.8 hPa Calm     56% 0.0 mm 0.0 W/m2 CLR
00:48 20.5 °C 11.4 °C 1015.8 hPa Calm     56% 0.0 mm 0.0 W/m2 CLR
00:53 20.4 °C 11.3 °C 1015.8 hPa Calm     56% 0.0 mm 0.0 W/m2 CLR
00:58 20.5 °C 11.4 °C 1015.8 hPa Calm     56% 0.0 mm 0.0 W/m2 CLR
01:03 20.3 °C 11.2 °C 1015.8 hPa Calm     56% 0.0 mm 0.0 W/m2 CLR
01:08 20.2 °C 11.1 °C 1015.8 hPa Calm     56% 0.0 mm 0.0 W/m2 CLR
01:13 20.0 °C 10.9 °C 1015.8 hPa Calm     56% 0.0 mm 0.0 W/m2 CLR
01:18 19.9 °C 11.1 °C 1015.8 hPa Calm     57% 0.0 mm 0.0 W/m2 CLR
01:23 19.7 °C 11.2 °C 1015.8 hPa Calm     58% 0.0 mm 0.0 W/m2 CLR
01:28 19.6 °C 11.4 °C 1015.8 hPa Calm     59% 0.0 mm 0.0 W/m2 CLR
01:33 19.6 °C 11.4 °C 1015.8 hPa Calm     59% 0.0 mm 0.0 W/m2 CLR
01:38 19.6 °C 11.4 °C 1015.8 hPa Calm     59% 0.0 mm 0.0 W/m2 CLR
01:40 19.6 °C 11.4 °C 1015.8 hPa Calm     59% 0.0 mm 0.0 W/m2 CLR
01:45 19.5 °C 11.5 °C 1015.8 hPa Calm     60% 0.0 mm 0.0 W/m2 CLR
01:50 19.4 °C 11.4 °C 1015.8 hPa Calm     60% 0.0 mm 0.0 W/m2 CLR
01:55 19.4 °C 11.4 °C 1015.8 hPa Calm     60% 0.0 mm 0.0 W/m2 CLR
02:00 19.3 °C 11.3 °C 1015.8 hPa Calm     60% 0.0 mm 0.0 W/m2 CLR
02:05 19.2 °C 11.2 °C 1014.8 hPa Calm     60% 0.0 mm 0.0 W/m2 CLR
02:10 19.1 °C 11.2 °C 1014.8 hPa Calm     60% 0.0 mm 0.0 W/m2 CLR
02:15 19.2 °C 11.2 °C 1014.8 hPa Calm     60% 0.0 mm 0.0 W/m2 CLR
02:20 19.1 °C 11.2 °C 1014.8 hPa Calm     60% 0.0 mm 0.0 W/m2 CLR
02:25 19.1 °C 11.2 °C 1014.8 hPa Calm     60% 0.0 mm 0.0 W/m2 CLR
02:30 19.0 °C 11.3 °C 1014.8 hPa Calm     61% 0.0 mm 0.0 W/m2 CLR
02:35 19.0 °C 11.3 °C 1015.8 hPa Calm     61% 0.0 mm 0.0 W/m2 CLR
02:40 18.8 °C 11.4 °C 1015.8 hPa Calm     62% 0.0 mm 0.0 W/m2 CLR
02:45 18.7 °C 11.3 °C 1015.8 hPa Calm     62% 0.0 mm 0.0 W/m2 CLR
02:50 18.7 °C 11.3 °C 1015.8 hPa Calm     62% 0.0 mm 0.0 W/m2 CLR
02:55 18.6 °C 11.2 °C 1015.8 hPa Calm     62% 0.0 mm 0.0 W/m2 CLR
03:00 18.7 °C 11.3 °C 1015.8 hPa Calm     62% 0.0 mm 0.0 W/m2 CLR
03:05 18.6 °C 11.4 °C 1015.8 hPa Calm     63% 0.0 mm 0.0 W/m2 CLR
03:10 18.5 °C 11.3 °C 1015.8 hPa Calm     63% 0.0 mm 0.0 W/m2 CLR
03:15 18.3 °C 11.1 °C 1015.8 hPa Calm     63% 0.0 mm 0.0 W/m2 CLR
03:20 18.3 °C 11.1 °C 1015.8 hPa Calm     63% 0.0 mm 0.0 W/m2 CLR
03:25 18.3 °C 11.1 °C 1015.8 hPa Calm     63% 0.0 mm 0.0 W/m2 CLR
03:30 18.2 °C 11.1 °C 1015.8 hPa Calm     63% 0.0 mm 0.0 W/m2 CLR
03:35 18.2 °C 11.1 °C 1015.8 hPa Calm     63% 0.0 mm 0.0 W/m2 CLR
03:40 18.1 °C 10.9 °C 1015.8 hPa Calm     63% 0.0 mm 0.0 W/m2 CLR
03:45 18.0 °C 10.8 °C 1015.8 hPa Calm     63% 0.0 mm 0.0 W/m2 CLR
03:50 18.1 °C 10.9 °C 1015.8 hPa Calm     63% 0.0 mm 0.0 W/m2 CLR
03:55 17.9 °C 11.0 °C 1015.8 hPa Calm     64% 0.0 mm 0.0 W/m2 CLR
04:00 18.0 °C 11.1 °C 1015.8 hPa Calm     64% 0.0 mm 0.0 W/m2 CLR
04:05 17.9 °C 11.0 °C 1015.8 hPa Calm     64% 0.0 mm 0.0 W/m2 CLR
04:10 17.9 °C 11.0 °C 1015.8 hPa Calm     64% 0.0 mm 0.0 W/m2 CLR
04:15 17.7 °C 11.1 °C 1015.8 hPa Calm     65% 0.0 mm 0.0 W/m2 CLR
04:20 17.9 °C 11.2 °C 1015.8 hPa Calm     65% 0.0 mm 0.0 W/m2 CLR
04:25 17.9 °C 11.0 °C 1015.8 hPa Calm     64% 0.0 mm 0.0 W/m2 CLR
04:30 17.9 °C 11.2 °C 1015.8 hPa Calm     65% 0.0 mm 0.0 W/m2 CLR
04:35 17.9 °C 11.0 °C 1015.8 hPa Calm     64% 0.0 mm 0.0 W/m2 CLR
04:40 17.8 °C 11.1 °C 1015.8 hPa Calm     65% 0.0 mm 0.0 W/m2 CLR
04:45 17.7 °C 11.3 °C 1015.8 hPa Calm     66% 0.0 mm 0.0 W/m2 CLR
04:50 17.4 °C 11.0 °C 1015.8 hPa Calm     66% 0.0 mm 0.0 W/m2 CLR
04:55 17.1 °C 10.7 °C 1015.8 hPa Calm     66% 0.0 mm 0.0 W/m2 CLR
05:00 17.3 °C 10.7 °C 1015.8 hPa Calm     65% 0.0 mm 0.0 W/m2 CLR
05:05 17.3 °C 10.9 °C 1015.8 hPa Calm     66% 0.0 mm 0.0 W/m2 CLR
05:10 17.3 °C 10.9 °C 1015.8 hPa Calm     66% 0.0 mm 0.0 W/m2 CLR
05:15 17.2 °C 11.0 °C 1015.8 hPa Calm     67% 0.0 mm 137.9 W/m2 CLR
05:20 17.0 °C 10.8 °C 1015.8 hPa Calm     67% 0.0 mm 140.0 W/m2 CLR
05:21 17.0 °C 10.8 °C 1015.8 hPa Calm     67% 0.0 mm 141.1 W/m2 CLR
05:22 17.0 °C 10.8 °C 1015.8 hPa Calm     67% 0.0 mm 142.1 W/m2 CLR
05:23 16.9 °C 10.9 °C 1015.8 hPa Calm     68% 0.0 mm 141.1 W/m2 CLR
05:28 16.9 °C 10.9 °C 1015.8 hPa Calm     68% 0.0 mm 145.9 W/m2 CLR
05:33 16.9 °C 10.9 °C 1015.8 hPa Calm     68% 0.0 mm 150.8 W/m2 CLR
05:38 16.9 °C 10.7 °C 1015.8 hPa Calm     67% 0.0 mm 155.6 W/m2 CLR
05:43 16.8 °C 10.8 °C 1015.8 hPa Calm     68% 0.0 mm 157.8 W/m2 CLR
05:48 16.9 °C 10.9 °C 1015.8 hPa Calm     68% 0.0 mm 164.9 W/m2 CLR
05:53 16.8 °C 10.8 °C 1015.8 hPa Calm     68% 0.0 mm 166.9 W/m2 CLR
05:58 16.9 °C 10.9 °C 1015.8 hPa Calm     68% 0.0 mm 174.2 W/m2 CLR
06:03 16.9 °C 11.2 °C 1015.8 hPa Calm     69% 0.0 mm 178.7 W/m2 CLR
06:08 17.0 °C 11.1 °C 1014.8 hPa Calm     68% 0.0 mm 185.8 W/m2 CLR
06:13 17.0 °C 11.1 °C 1014.8 hPa Calm     68% 0.0 mm 190.4 W/m2 CLR
06:18 17.1 °C 10.9 °C 1014.8 hPa Calm     67% 0.0 mm 197.4 W/m2 CLR
06:23 17.0 °C 11.1 °C 1015.8 hPa Calm     68% 0.0 mm 199.2 W/m2 CLR
06:28 17.0 °C 11.1 °C 1015.8 hPa Calm     68% 0.0 mm 203.3 W/m2 CLR
06:33 17.0 °C 11.1 °C 1015.8 hPa Calm     68% 0.0 mm 207.6 W/m2 CLR
06:38 17.2 °C 11.2 °C 1015.8 hPa Calm     68% 0.0 mm 214.8 W/m2 CLR
06:43 17.3 °C 11.3 °C 1015.8 hPa Calm     68% 0.0 mm 224.8 W/m2 CLR
06:48 17.3 °C 11.6 °C 1015.8 hPa Calm     69% 0.0 mm 229.2 W/m2 CLR
06:53 17.3 °C 11.6 °C 1015.8 hPa WNW 11.9 km/h 11.9 km/h 69% 0.0 mm 233.2 W/m2 CLR
06:58 17.6 °C 11.8 °C 1015.8 hPa WNW 3.7 km/h 3.7 km/h 69% 0.0 mm 243.8 W/m2 CLR
07:03 18.2 °C 12.6 °C 1015.8 hPa West 5.6 km/h 5.6 km/h 70% 0.0 mm 267.3 W/m2 CLR
07:08 18.7 °C 12.9 °C 1016.8 hPa West 3.7 km/h 3.7 km/h 69% 0.0 mm 285.2 W/m2 CLR
07:13 19.0 °C 12.9 °C 1016.8 hPa West 1.9 km/h   68% 0.0 mm 303.0 W/m2 CLR
07:18 19.1 °C 13.1 °C 1016.8 hPa West 1.9 km/h   68% 0.0 mm 313.9 W/m2 CLR
07:23 19.3 °C 13.4 °C 1015.8 hPa WNW 3.7 km/h 3.7 km/h 69% 0.0 mm 325.5 W/m2 CLR
07:28 19.4 °C 13.3 °C 1015.8 hPa SSW 3.5 km/h 3.5 km/h 68% 0.0 mm 333.2 W/m2 CLR
07:33 19.6 °C 13.6 °C 1015.8 hPa SSE 3.7 km/h 3.7 km/h 68% 0.0 mm 341.1 W/m2 CLR
07:38 19.7 °C 13.6 °C 1015.8 hPa SE 5.6 km/h 5.6 km/h 68% 0.0 mm 349.0 W/m2 CLR
07:43 19.7 °C 13.6 °C 1015.8 hPa East 3.7 km/h   68% 0.0 mm 356.5 W/m2 CLR
07:48 19.8 °C 13.7 °C 1015.8 hPa East 1.9 km/h   68% 0.0 mm 364.1 W/m2 CLR
07:53 20.0 °C 13.7 °C 1016.8 hPa East 3.7 km/h 3.9 km/h 67% 0.0 mm 371.7 W/m2 CLR
07:58 20.2 °C 13.9 °C 1016.8 hPa ESE 5.6 km/h 5.6 km/h 67% 0.0 mm 386.6 W/m2 CLR
08:03 20.4 °C 13.8 °C 1016.8 hPa NNE 2.3 km/h 2.3 km/h 66% 0.0 mm 397.8 W/m2 CLR
08:08 20.7 °C 14.1 °C 1016.8 hPa NNE 1.9 km/h   66% 0.0 mm 409.2 W/m2 CLR
08:13 20.9 °C 14.1 °C 1016.8 hPa ESE 3.7 km/h   65% 0.0 mm 424.0 W/m2 CLR
08:18 21.1 °C 14.0 °C 1016.8 hPa ENE 3.7 km/h 3.7 km/h 64% 0.0 mm 435.1 W/m2 CLR
08:23 21.4 °C 14.3 °C 1015.8 hPa East 5.6 km/h 5.6 km/h 64% 0.0 mm 450.3 W/m2 CLR
08:28 21.7 °C 14.6 °C 1015.8 hPa East 2.3 km/h 2.3 km/h 64% 0.0 mm 465.1 W/m2 CLR
08:33 22.0 °C 14.6 °C 1015.8 hPa ESE 7.4 km/h 7.4 km/h 63% 0.0 mm 480.0 W/m2 CLR
08:38 22.4 °C 14.8 °C 1015.8 hPa East 5.6 km/h 5.6 km/h 62% 0.0 mm 495.1 W/m2 CLR
08:43 22.7 °C 14.8 °C 1015.8 hPa SW 9.3 km/h 9.3 km/h 61% 0.0 mm 513.7 W/m2 CLR
08:48 22.9 °C 14.7 °C 1015.8 hPa SE 5.6 km/h 5.6 km/h 60% 0.0 mm 524.4 W/m2 CLR
08:53 23.2 °C 14.7 °C 1015.8 hPa East 3.7 km/h 3.7 km/h 59% 0.0 mm 534.5 W/m2 CLR
08:58 23.3 °C 14.6 °C 1015.8 hPa Calm     58% 0.0 mm 545.3 W/m2 CLR
09:03 23.4 °C 14.7 °C 1015.8 hPa East 3.5 km/h 3.5 km/h 58% 0.0 mm 550.7 W/m2 CLR
09:08 23.8 °C 15.1 °C 1015.8 hPa ESE 5.6 km/h 5.6 km/h 58% 0.0 mm 565.1 W/m2 CLR
09:13 24.0 °C 14.7 °C 1015.8 hPa WNW 3.9 km/h 3.9 km/h 56% 0.0 mm 578.9 W/m2 CLR
09:18 24.1 °C 14.8 °C 1015.8 hPa SSW 4.2 km/h 4.2 km/h 56% 0.0 mm 584.4 W/m2 CLR
09:23 24.3 °C 14.7 °C 1015.8 hPa SW 1.4 km/h   55% 0.0 mm 593.5 W/m2 CLR
09:28 24.6 °C 14.9 °C 1015.8 hPa SE 3.7 km/h   55% 0.0 mm 606.6 W/m2 CLR
09:33 24.8 °C 14.8 °C 1015.8 hPa NNW 3.7 km/h   54% 0.0 mm 615.7 W/m2 CLR
09:38 25.1 °C 14.8 °C 1014.8 hPa West 5.6 km/h 5.6 km/h 53% 0.0 mm 628.2 W/m2 CLR
09:43 25.1 °C 14.8 °C 1014.8 hPa West 1.9 km/h   53% 0.0 mm 628.2 W/m2 CLR
09:48 25.4 °C 15.1 °C 1014.8 hPa WNW 3.9 km/h 3.9 km/h 53% 0.0 mm 635.7 W/m2 CLR
09:53 25.6 °C 15.3 °C 1014.8 hPa SSE 3.9 km/h 3.9 km/h 53% 0.0 mm 643.3 W/m2 CLR
09:54 25.6 °C 15.3 °C 1014.8 hPa SSE 3.7 km/h 3.7 km/h 53% 0.0 mm 647.4 W/m2 CLR
09:59 25.9 °C 15.3 °C 1014.8 hPa WNW 5.6 km/h 5.6 km/h 52% 0.0 mm 654.9 W/m2 CLR
10:04 26.1 °C 15.5 °C 1015.8 hPa NW 5.6 km/h 5.6 km/h 52% 0.0 mm 665.7 W/m2 CLR
10:09 26.3 °C 15.3 °C 1015.8 hPa SSW 4.7 km/h 4.7 km/h 51% 0.0 mm 668.3 W/m2 CLR
10:14 26.5 °C 15.6 °C 1015.8 hPa South 5.3 km/h   51% 0.0 mm 679.0 W/m2 CLR
10:19 26.7 °C 15.7 °C 1015.8 hPa ESE 5.6 km/h 5.6 km/h 51% 0.0 mm 684.7 W/m2 CLR
10:29 27.2 °C 15.9 °C 1015.8 hPa West 5.6 km/h 5.6 km/h 50% 0.0 mm 695.1 W/m2 CLR
10:34 27.3 °C 15.9 °C 1015.8 hPa ENE 3.7 km/h 3.7 km/h 50% 0.0 mm 699.8 W/m2 CLR
10:39 27.5 °C 15.8 °C 1015.8 hPa SW 4.2 km/h 4.2 km/h 49% 0.0 mm 704.4 W/m2 CLR
10:44 27.5 °C 15.8 °C 1015.8 hPa West 3.7 km/h 3.7 km/h 49% 0.0 mm 700.9 W/m2 CLR
10:49 27.5 °C 15.8 °C 1015.8 hPa NW 1.9 km/h   49% 0.0 mm 696.5 W/m2 CLR
10:54 27.8 °C 16.1 °C 1015.8 hPa SSW 7.4 km/h 7.4 km/h 49% 0.0 mm 695.2 W/m2 CLR
10:59 28.1 °C 16.4 °C 1015.8 hPa ESE 7.4 km/h 7.4 km/h 49% 0.0 mm 706.5 W/m2 CLR
11:04 28.5 °C 16.4 °C 1015.8 hPa SSW 5.6 km/h 5.6 km/h 48% 0.0 mm 716.7 W/m2 CLR
11:09 28.6 °C 15.8 °C 1015.8 hPa SE 1.9 km/h   46% 0.0 mm 718.0 W/m2 CLR
11:14 28.9 °C 16.1 °C 1015.8 hPa SSE 5.8 km/h 5.8 km/h 46% 0.0 mm 720.0 W/m2 CLR
11:19 28.9 °C 15.4 °C 1015.8 hPa NNW 3.7 km/h 3.7 km/h 44% 0.0 mm 717.3 W/m2 CLR
11:24 29.1 °C 15.6 °C 1015.8 hPa NE 3.7 km/h 3.7 km/h 44% 0.0 mm 717.2 W/m2 CLR
11:29 29.2 °C 15.7 °C 1015.8 hPa NW 4.2 km/h 4.2 km/h 44% 0.0 mm 714.2 W/m2 CLR
11:34 29.3 °C 16.1 °C 1015.8 hPa SSE 3.9 km/h 3.9 km/h 45% 0.0 mm 706.6 W/m2 CLR
11:39 29.8 °C 16.2 °C 1015.8 hPa South 5.6 km/h 5.6 km/h 44% 0.0 mm 717.1 W/m2 CLR
11:44 30.0 °C 16.4 °C 1015.8 hPa SSE 5.6 km/h 5.6 km/h 44% 0.0 mm 719.0 W/m2 CLR
11:49 30.2 °C 16.6 °C 1015.8 hPa SSE 5.0 km/h 5.0 km/h 44% 0.0 mm 710.0 W/m2 CLR
11:54 30.3 °C 15.9 °C 1015.8 hPa ENE 3.7 km/h 3.7 km/h 42% 0.0 mm 701.0 W/m2 CLR
11:59 30.3 °C 16.3 °C 1015.8 hPa NNE 5.6 km/h 5.6 km/h 43% 0.0 mm 692.0 W/m2 CLR
12:04 30.4 °C 16.1 °C 1014.8 hPa SSW 2.3 km/h 2.6 km/h 42% 0.0 mm 682.0 W/m2 CLR
12:09 30.6 °C 16.2 °C 1014.8 hPa SW 5.8 km/h 5.8 km/h 42% 0.0 mm 672.0 W/m2 CLR
12:14 30.9 °C 16.5 °C 1014.8 hPa South 3.7 km/h   42% 0.0 mm 661.0 W/m2 CLR
12:19 31.0 °C 16.2 °C 1014.8 hPa West 7.4 km/h 7.4 km/h 41% 0.0 mm 651.0 W/m2 CLR
12:24 31.1 °C 16.3 °C 1014.8 hPa SW 3.9 km/h 3.9 km/h 41% 0.0 mm 640.0 W/m2 CLR
12:29 31.3 °C 16.1 °C 1014.8 hPa WNW 9.3 km/h 9.3 km/h 40% 0.0 mm 629.0 W/m2 CLR
12:34 31.3 °C 16.1 °C 1014.8 hPa WSW 7.4 km/h 7.4 km/h 40% 0.0 mm 618.0 W/m2 CLR
12:39 31.4 °C 16.2 °C 1014.8 hPa SSW 5.6 km/h 5.6 km/h 40% 0.0 mm 606.0 W/m2 CLR
12:44 31.6 °C 16.3 °C 1014.8 hPa SSE 5.8 km/h 5.8 km/h 40% 0.0 mm 594.0 W/m2 CLR
12:49 31.9 °C 16.6 °C 1013.8 hPa WNW 6.4 km/h 6.4 km/h 40% 0.0 mm 582.0 W/m2 CLR
12:54 31.9 °C 16.2 °C 1013.8 hPa West 7.4 km/h 7.4 km/h 39% 0.0 mm 570.0 W/m2 CLR
12:59 32.1 °C 16.4 °C 1013.8 hPa SW 9.3 km/h 9.3 km/h 39% 0.0 mm 558.0 W/m2 CLR
13:04 32.1 °C 16.0 °C 1013.8 hPa South 5.6 km/h 5.6 km/h 38% 0.0 mm 545.0 W/m2 CLR
13:05 32.2 °C 16.5 °C 1013.8 hPa WNW 5.6 km/h 5.6 km/h 39% 0.0 mm 542.0 W/m2 CLR
13:10 32.3 °C 16.2 °C 1013.8 hPa West 7.4 km/h 7.4 km/h 38% 0.0 mm 530.0 W/m2 CLR
13:15 32.4 °C 16.3 °C 1013.8 hPa SSW 5.8 km/h 5.8 km/h 38% 0.0 mm 517.0 W/m2 CLR
13:20 32.4 °C 16.3 °C 1013.8 hPa SSE 11.1 km/h 11.1 km/h 38% 0.0 mm 503.0 W/m2 CLR
13:25 32.6 °C 16.4 °C 1013.8 hPa SW 7.4 km/h 7.4 km/h 38% 0.0 mm 490.0 W/m2 CLR
13:30 32.6 °C 16.4 °C 1013.8 hPa SW 7.4 km/h 7.4 km/h 38% 0.0 mm 477.0 W/m2 CLR
13:35 32.7 °C 16.5 °C 1013.8 hPa West 7.4 km/h 7.4 km/h 38% 0.0 mm 463.0 W/m2 CLR
13:40 32.7 °C 16.5 °C 1013.8 hPa SSW 9.3 km/h 9.3 km/h 38% 0.0 mm 449.0 W/m2 CLR
13:45 32.7 °C 16.5 °C 1013.8 hPa West 7.4 km/h 7.4 km/h 38% 0.0 mm 435.0 W/m2 CLR
13:50 32.9 °C 16.7 °C 1012.8 hPa SSE 13.0 km/h 13.0 km/h 38% 0.0 mm 421.0 W/m2 CLR
13:55 32.8 °C 16.6 °C 1012.8 hPa SW 9.3 km/h 9.3 km/h 38% 0.0 mm 407.0 W/m2 CLR
14:00 32.6 °C 16.4 °C 1012.8 hPa WNW 5.6 km/h 5.8 km/h 38% 0.0 mm 393.0 W/m2 CLR
14:05 32.6 °C 16.4 °C 1013.8 hPa West 5.0 km/h 5.0 km/h 38% 0.0 mm 379.0 W/m2 CLR
14:10 32.8 °C 16.6 °C 1013.8 hPa WSW 11.1 km/h 11.1 km/h 38% 0.0 mm 365.0 W/m2 CLR
14:15 32.3 °C 16.2 °C 1013.8 hPa WNW 15.8 km/h 15.8 km/h 38% 0.0 mm 350.0 W/m2 CLR
14:20 31.8 °C 16.1 °C 1013.8 hPa NW 5.6 km/h 5.6 km/h 39% 0.0 mm 336.0 W/m2 CLR
14:25 31.5 °C 15.9 °C 1013.8 hPa WNW 9.3 km/h 9.3 km/h 39% 0.0 mm 322.0 W/m2 CLR
14:30 31.3 °C 15.7 °C 1013.8 hPa WNW 16.7 km/h 16.7 km/h 39% 0.0 mm 307.0 W/m2 CLR
14:35 31.1 °C 15.5 °C 1013.8 hPa NW 11.9 km/h 11.9 km/h 39% 0.0 mm 293.0 W/m2 CLR
14:40 31.2 °C 15.6 °C 1013.8 hPa WNW 9.5 km/h 9.5 km/h 39% 0.0 mm 279.0 W/m2 CLR
14:45 31.1 °C 15.5 °C 1013.8 hPa NW 13.0 km/h 13.0 km/h 39% 0.0 mm 264.0 W/m2 CLR
14:50 31.3 °C 15.7 °C 1013.8 hPa WNW 13.0 km/h 13.0 km/h 39% 0.0 mm 250.0 W/m2 CLR
14:55 31.1 °C 15.5 °C 1013.8 hPa NW 14.8 km/h 14.8 km/h 39% 0.0 mm 236.0 W/m2 CLR
15:00 30.9 °C 15.3 °C 1013.8 hPa WNW 13.0 km/h 13.0 km/h 39% 0.0 mm 222.0 W/m2 CLR
15:05 31.2 °C 15.6 °C 1013.8 hPa West 11.1 km/h 11.1 km/h 39% 0.0 mm 208.0 W/m2 CLR
15:10 31.3 °C 15.7 °C 1013.8 hPa WNW 16.7 km/h 16.7 km/h 39% 0.0 mm 194.0 W/m2 CLR
15:15 31.1 °C 15.5 °C 1013.8 hPa NW 13.0 km/h 13.0 km/h 39% 0.0 mm 181.0 W/m2 CLR
15:20 30.9 °C 15.3 °C 1012.8 hPa NW 16.7 km/h 16.7 km/h 39% 0.0 mm 167.0 W/m2 CLR
15:25 30.9 °C 15.3 °C 1012.8 hPa WNW 18.5 km/h 18.5 km/h 39% 0.0 mm 154.0 W/m2 CLR
15:30 31.2 °C 15.6 °C 1012.8 hPa WNW 16.7 km/h 16.7 km/h 39% 0.0 mm 141.0 W/m2 CLR
15:35 31.4 °C 15.8 °C 1012.8 hPa WNW 5.8 km/h 5.8 km/h 39% 0.0 mm 129.0 W/m2 CLR
15:40 31.6 °C 15.9 °C 1012.8 hPa WNW 9.3 km/h 9.3 km/h 39% 0.0 mm 116.0 W/m2 CLR
15:45 31.8 °C 16.1 °C 1012.8 hPa NW 16.7 km/h 16.7 km/h 39% 0.0 mm 104.0 W/m2 CLR
15:50 31.6 °C 15.9 °C 1013.8 hPa NW 15.8 km/h 15.8 km/h 39% 0.0 mm 92.0 W/m2 CLR
15:55 31.5 °C 15.9 °C 1013.8 hPa NNW 13.0 km/h 13.0 km/h 39% 0.0 mm 81.0 W/m2 CLR
16:00 31.2 °C 15.6 °C 1013.8 hPa NNW 16.7 km/h 16.7 km/h 39% 0.0 mm 70.0 W/m2 CLR
16:05 31.2 °C 15.6 °C 1012.8 hPa WNW 14.8 km/h 14.8 km/h 39% 0.0 mm 59.0 W/m2 CLR
16:10 31.0 °C 15.4 °C 1012.8 hPa NNW 16.7 km/h 16.7 km/h 39% 0.0 mm 49.0 W/m2 CLR
16:15 30.9 °C 15.3 °C 1012.8 hPa WNW 14.8 km/h 14.8 km/h 39% 0.0 mm 40.0 W/m2 CLR
16:20 30.9 °C 15.3 °C 1013.8 hPa WNW 11.1 km/h 11.1 km/h 39% 0.0 mm 31.0 W/m2 CLR
16:25 31.0 °C 15.4 °C 1013.8 hPa WNW 11.1 km/h 11.1 km/h 39% 0.0 mm 22.0 W/m2 CLR
16:30 31.0 °C 15.4 °C 1013.8 hPa NNW 11.1 km/h 11.1 km/h 39% 0.0 mm 15.0 W/m2 CLR
16:35 30.6 °C 15.1 °C 1012.8 hPa NW 13.0 km/h 13.0 km/h 39% 0.0 mm 8.0 W/m2 CLR
16:40 30.6 °C 15.4 °C 1012.8 hPa North 11.1 km/h 11.1 km/h 40% 0.0 mm 3.0 W/m2 CLR
16:45 30.6 °C 15.1 °C 1012.8 hPa NW 11.1 km/h 11.1 km/h 39% 0.0 mm 3.0 W/m2 CLR
16:50 30.4 °C 14.9 °C 1012.8 hPa NW 13.0 km/h 13.0 km/h 39% 0.0 mm 3.0 W/m2 CLR
16:55 30.3 °C 15.2 °C 1012.8 hPa NW 14.8 km/h 14.8 km/h 40% 0.0 mm 3.0 W/m2 CLR
17:00 30.1 °C 15.0 °C 1012.8 hPa NNW 9.3 km/h 9.3 km/h 40% 0.0 mm 3.0 W/m2 CLR
17:05 29.9 °C 14.8 °C 1013.8 hPa NNW 11.1 km/h 11.1 km/h 40% 0.0 mm 3.0 W/m2 CLR
17:10 29.9 °C 14.8 °C 1013.8 hPa NW 11.1 km/h 11.1 km/h 40% 0.0 mm 3.0 W/m2 CLR
17:15 29.6 °C 14.6 °C 1013.8 hPa NW 10.8 km/h 10.8 km/h 40% 0.0 mm 3.0 W/m2 CLR
17:20 29.4 °C 14.8 °C 1013.8 hPa NNW 10.3 km/h 10.3 km/h 41% 0.0 mm 3.0 W/m2 CLR
17:25 29.3 °C 14.7 °C 1013.8 hPa NNW 11.1 km/h 11.1 km/h 41% 0.0 mm 3.0 W/m2 CLR
17:30 29.1 °C 14.5 °C 1013.8 hPa WNW 9.3 km/h 9.3 km/h 41% 0.0 mm 3.0 W/m2 CLR
17:35 29.0 °C 14.4 °C 1013.8 hPa NNW 9.3 km/h 9.3 km/h 41% 0.0 mm 3.0 W/m2 CLR
17:40 29.0 °C 14.4 °C 1013.8 hPa NNW 13.0 km/h 13.0 km/h 41% 0.0 mm 3.0 W/m2 CLR
17:45 28.9 °C 14.3 °C 1013.8 hPa NW 13.7 km/h 13.7 km/h 41% 0.0 mm 3.0 W/m2 CLR
17:50 28.9 °C 14.3 °C 1013.8 hPa NNW 15.6 km/h 15.6 km/h 41% 0.0 mm 3.0 W/m2 CLR
17:55 28.7 °C 14.2 °C 1013.8 hPa North 16.7 km/h 16.7 km/h 41% 0.0 mm 3.0 W/m2 CLR
18:00 28.5 °C 14.3 °C 1013.8 hPa WNW 14.8 km/h 14.8 km/h 42% 0.0 mm 3.0 W/m2 CLR
18:05 28.2 °C 14.1 °C 1013.8 hPa NNW 13.0 km/h 13.0 km/h 42% 0.0 mm 3.0 W/m2 CLR
18:10 28.0 °C 13.9 °C 1013.8 hPa NW 14.0 km/h 14.0 km/h 42% 0.0 mm 3.0 W/m2 CLR
18:15 27.8 °C 13.7 °C 1013.8 hPa WNW 19.8 km/h 19.8 km/h 42% 0.0 mm 3.0 W/m2 CLR
18:20 27.1 °C 13.8 °C 1013.8 hPa WNW 20.4 km/h 20.4 km/h 44% 0.0 mm 3.0 W/m2 CLR
18:25 26.6 °C 13.3 °C 1013.8 hPa WNW 19.8 km/h 19.8 km/h 44% 0.0 mm 3.0 W/m2 CLR
18:30 26.1 °C 13.2 °C 1013.8 hPa NW 22.2 km/h 22.2 km/h 45% 0.0 mm 3.0 W/m2 CLR
18:35 25.7 °C 13.6 °C 1013.8 hPa WNW 20.4 km/h 20.4 km/h 47% 0.0 mm 3.0 W/m2 CLR
18:40 25.5 °C 13.3 °C 1013.8 hPa WNW 22.2 km/h 22.2 km/h 47% 0.0 mm 3.0 W/m2 CLR
18:45 25.3 °C 13.5 °C 1013.8 hPa WNW 14.8 km/h 14.8 km/h 48% 0.0 mm 3.0 W/m2 CLR
18:50 25.2 °C 13.4 °C 1013.8 hPa WNW 20.4 km/h 20.4 km/h 48% 0.0 mm 3.0 W/m2 CLR
18:56 25.1 °C 13.6 °C 1013.8 hPa WNW 16.7 km/h 16.7 km/h 49% 0.0 mm 3.0 W/m2 CLR
19:01 25.0 °C 13.6 °C 1013.8 hPa NW 13.0 km/h 13.0 km/h 49% 0.0 mm 3.0 W/m2 CLR
19:06 24.9 °C 13.8 °C 1014.8 hPa West 11.1 km/h 11.1 km/h 50% 0.0 mm 3.0 W/m2 CLR
19:11 24.8 °C 13.7 °C 1014.8 hPa WNW 11.1 km/h 11.1 km/h 50% 0.0 mm 3.0 W/m2 CLR
19:16 24.7 °C 13.6 °C 1014.8 hPa NNW 13.0 km/h 13.0 km/h 50% 0.0 mm 3.0 W/m2 CLR
19:21 24.7 °C 13.9 °C 1013.8 hPa NNW 16.7 km/h 16.7 km/h 51% 0.0 mm 3.0 W/m2 CLR
19:26 24.7 °C 13.9 °C 1013.8 hPa WNW 15.8 km/h 15.8 km/h 51% 0.0 mm 3.0 W/m2 CLR
19:31 24.6 °C 13.8 °C 1013.8 hPa NW 16.7 km/h 16.7 km/h 51% 0.0 mm 3.0 W/m2 CLR
19:36 24.6 °C 13.8 °C 1013.8 hPa WSW 14.8 km/h 14.8 km/h 51% 0.0 mm 3.0 W/m2 CLR
19:41 24.5 °C 13.7 °C 1013.8 hPa NW 11.1 km/h 11.1 km/h 51% 0.0 mm 3.0 W/m2 CLR
19:46 24.4 °C 13.6 °C 1013.8 hPa NNW 14.8 km/h 14.8 km/h 51% 0.0 mm 3.0 W/m2 CLR
19:51 24.2 °C 13.4 °C 1013.8 hPa NNW 7.4 km/h 7.4 km/h 51% 0.0 mm 3.0 W/m2 CLR
19:56 24.1 °C 13.3 °C 1013.8 hPa NNW 14.8 km/h 14.8 km/h 51% 0.0 mm 3.0 W/m2 CLR
20:01 24.0 °C 13.2 °C 1013.8 hPa NNE 9.3 km/h 9.3 km/h 51% 0.0 mm 0.0 W/m2 CLR
20:06 24.0 °C 13.2 °C 1013.8 hPa NNW 11.1 km/h 11.1 km/h 51% 0.0 mm 0.0 W/m2 CLR
20:11 23.9 °C 13.4 °C 1013.8 hPa WNW 16.7 km/h 16.7 km/h 52% 0.0 mm 0.0 W/m2 CLR
20:16 23.8 °C 13.3 °C 1013.8 hPa North 7.4 km/h 7.4 km/h 52% 0.0 mm 0.0 W/m2 CLR
20:21 23.8 °C 13.3 °C 1013.8 hPa WNW 11.4 km/h 11.4 km/h 52% 0.0 mm 0.0 W/m2 CLR
20:26 23.7 °C 13.3 °C 1013.8 hPa NNW 9.3 km/h 9.3 km/h 52% 0.0 mm 0.0 W/m2 CLR
20:31 23.6 °C 13.2 °C 1013.8 hPa NNW 7.4 km/h 7.4 km/h 52% 0.0 mm 0.0 W/m2 CLR
20:36 23.6 °C 13.2 °C 1013.8 hPa WNW 10.0 km/h 10.0 km/h 52% 0.0 mm 0.0 W/m2 CLR
20:41 23.5 °C 13.1 °C 1013.8 hPa NNW 9.5 km/h 9.5 km/h 52% 0.0 mm 0.0 W/m2 CLR
20:46 23.4 °C 13.3 °C 1013.8 hPa North 13.0 km/h 13.0 km/h 53% 0.0 mm 0.0 W/m2 CLR
20:51 23.4 °C 13.3 °C 1013.8 hPa NW 9.5 km/h 9.5 km/h 53% 0.0 mm 0.0 W/m2 CLR
20:56 23.3 °C 13.2 °C 1013.8 hPa NNW 11.1 km/h 11.1 km/h 53% 0.0 mm 0.0 W/m2 CLR
21:01 23.2 °C 13.4 °C 1013.8 hPa WNW 9.7 km/h 9.7 km/h 54% 0.0 mm 0.0 W/m2 CLR
21:06 23.2 °C 13.4 °C 1014.8 hPa WNW 11.1 km/h 11.1 km/h 54% 0.0 mm 0.0 W/m2 CLR
21:11 23.1 °C 13.3 °C 1014.8 hPa NW 12.2 km/h 12.2 km/h 54% 0.0 mm 0.0 W/m2 CLR
21:16 23.1 °C 13.3 °C 1014.8 hPa NNW 13.0 km/h 13.0 km/h 54% 0.0 mm 0.0 W/m2 CLR
21:21 23.1 °C 13.3 °C 1013.8 hPa NNW 16.7 km/h 16.7 km/h 54% 0.0 mm 0.0 W/m2 CLR
21:26 23.0 °C 13.2 °C 1013.8 hPa NW 12.6 km/h 12.6 km/h 54% 0.0 mm 0.0 W/m2 CLR
21:31 22.9 °C 13.1 °C 1013.8 hPa NNW 13.0 km/h 13.0 km/h 54% 0.0 mm 0.0 W/m2 CLR
21:36 22.9 °C 13.1 °C 1014.8 hPa WNW 9.3 km/h 9.3 km/h 54% 0.0 mm 0.0 W/m2 CLR
21:41 22.8 °C 13.0 °C 1014.8 hPa NNW 11.1 km/h 11.1 km/h 54% 0.0 mm 0.0 W/m2 CLR
21:46 22.8 °C 13.0 °C 1014.8 hPa NW 16.7 km/h 16.7 km/h 54% 0.0 mm 0.0 W/m2 CLR
21:51 22.7 °C 13.2 °C 1013.8 hPa NNW 17.2 km/h 17.2 km/h 55% 0.0 mm 0.0 W/m2 CLR
21:56 22.7 °C 13.2 °C 1013.8 hPa NNW 13.0 km/h 13.0 km/h 55% 0.0 mm 0.0 W/m2 CLR
22:01 22.6 °C 13.1 °C 1013.8 hPa NNW 11.1 km/h 11.1 km/h 55% 0.0 mm 0.0 W/m2 CLR
22:06 22.6 °C 12.8 °C 1013.8 hPa NW 16.7 km/h 16.7 km/h 54% 0.0 mm 0.0 W/m2 CLR
22:11 22.5 °C 12.7 °C 1013.8 hPa NW 18.5 km/h 18.5 km/h 54% 0.0 mm 0.0 W/m2 CLR
22:16 22.5 °C 12.7 °C 1013.8 hPa NW 13.0 km/h 13.0 km/h 54% 0.0 mm 0.0 W/m2 CLR
22:21 22.6 °C 12.8 °C 1013.8 hPa North 13.0 km/h 13.0 km/h 54% 0.0 mm 0.0 W/m2 CLR
22:26 22.6 °C 12.8 °C 1013.8 hPa NNE 11.1 km/h 11.1 km/h 54% 0.0 mm 0.0 W/m2 CLR
Hered Hungary
Compliments of Weather Underground - 4 mb